[[{"header":{"parameterUnit":"m.s-1","parameterCategory":1,"la1":30.2991,"la2":30.254,"lo1":-89.0895,"lo2":-89.0444,"dy":0.0017,"dx":0.0017,"nx":28,"ny":28,"refTime":"2025-05-15T21:00:00:Z","depth":0,"parameterNumber":2,"parameterNumberName":"U-component_of_WINDS"},"data":[0,0,0,0,0,0,0,0,0,0,0,0,0,0,0,0,0,0,0,0,0,0,0,0,0,0,0,0,0,0,0,0,0,0,0,0,0,0,0,0,0,0,0,0,0,0,0,0,0,0,0,0,0,0,0,0,0,0,1.1866,1.1867,0,1.1932,1.1933,1.1934,1.1928,1.1927,1.1926,1.1925,1.1991,1.1994,1.1997,0,0,0,0,0,0,0,0,0,0,0,0,0,1.1733,1.1735,1.1866,1.1867,1.1867,1.1932,1.1933,1.1934,1.1928,1.1927,1.1926,1.1924,1.1991,1.1994,1.1997,0,0,0,0,0,0,0,0,0,0,0,0,0,1.1794,1.1736,1.1866,1.1872,1.1874,1.1932,1.1933,1.1934,1.1928,1.1927,1.1925,1.1924,1.199,1.1993,1.1997,1.2053,0,0,1.201,1.2012,0,0,0,0,0,0,0,0,1.179,1.1799,1.1871,1.1872,1.1874,1.192,1.191,1.1974,1.1929,1.1907,1.1925,1.1923,1.1969,1.1975,1.199,1.2056,1.2059,1.201,1.2013,1.2014,1.2016,0,0,0,0,0,0,0,1.1786,1.1796,1.1892,1.1872,1.1873,1.1872,1.1879,1.1922,1.1946,1.1909,1.1909,1.1917,1.1969,1.1986,1.1992,1.206,1.201,1.2014,1.2016,1.2018,1.2173,1.2175,0,0,0,0,0,0,1.1781,1.1792,1.189,1.1894,1.1827,1.1875,1.1883,1.1907,1.1945,1.195,1.1918,1.1916,1.198,1.1987,1.1994,1.2061,1.2014,1.2018,1.2021,1.2172,1.2174,1.2176,0,0,0,0,0,0,1.1778,1.1789,1.1887,1.1843,1.1855,1.1879,1.1906,1.1909,1.1926,1.1952,1.1956,1.1931,1.1979,1.1988,1.2038,1.2063,1.202,1.2024,1.217,1.2172,1.2175,1.2195,0,0,0,0,0,0,1.1774,1.1788,1.181,1.1844,1.1858,1.1931,1.1907,1.1911,1.1933,1.1931,1.1965,1.197,1.1979,1.2032,1.2042,1.2068,1.2027,1.2168,1.2171,1.2174,1.2193,1.2198,1.2203,0,0,0,0,0,1.1769,1.1813,1.1811,1.1823,1.1885,1.1932,1.194,1.195,1.1935,1.1957,1.1973,1.1969,1.2059,1.2037,1.2049,1.2076,1.2166,1.217,1.2174,1.219,1.2197,1.2203,0,0,0,0,0,0,1.1781,1.1817,1.1816,1.1872,1.1899,1.1931,1.1959,1.1957,1.1989,1.1986,1.1997,1.2004,1.2054,1.207,1.2045,1.2131,1.211,1.2117,1.2119,1.2126,1.2131,1.2126,1.203,0,0,0,0,0,1.179,1.1826,1.1855,1.1902,1.1916,1.1935,1.1956,1.1961,1.1989,1.2001,1.2021,1.2048,1.2083,1.2105,1.2138,1.2195,1.2202,1.2219,1.2225,1.2229,1.2234,1.2264,1.2272,1.2188,1.2188,1.2188,0,0,1.1809,1.1834,1.1855,1.1905,1.1927,1.1962,1.1945,1.1983,1.201,1.2006,1.2055,1.2071,1.2102,1.2155,1.2179,1.217,1.2259,1.2234,1.2237,1.224,1.2269,1.2277,1.2284,1.2191,1.219,1.219,0,0,1.1863,1.1885,1.1926,1.1948,1.1981,1.1994,1.2004,1.2036,1.2047,1.2095,1.2093,1.2125,1.2184,1.2206,1.2225,1.2287,1.2283,1.2297,1.2325,1.2355,1.2361,1.2367,1.2389,1.2396,1.2302,1.2303,1.2303,0,1.1882,1.1937,1.1947,1.1986,1.2008,1.2007,1.2048,1.2069,1.2111,1.2126,1.2114,1.2189,1.2209,1.2268,1.2283,1.2298,1.2309,1.2293,1.236,1.2366,1.2371,1.2392,1.24,1.2304,1.2304,1.2304,1.2304,0,1.1959,1.1997,1.2026,1.2067,1.2092,1.2132,1.2148,1.2172,1.2175,1.2188,1.2238,1.2263,1.2301,1.2315,1.2318,1.2374,1.2366,1.2357,1.2336,1.2381,1.24,1.2408,1.2306,1.2306,1.2305,1.2305,0,0,1.2021,1.2068,1.2078,1.2097,1.2133,1.2162,1.2202,1.224,1.226,1.2289,1.2322,1.2372,1.2364,1.2385,1.2391,1.2417,1.2464,1.2405,1.2406,1.2415,1.2526,1.2532,1.2541,1.2462,1.2463,1.2465,1.2523,0,1.2078,1.2149,1.2159,1.2222,1.2256,1.2256,1.229,1.2316,1.233,1.2361,1.2376,1.2411,1.2398,1.241,1.2436,1.2453,1.2486,1.2449,1.2492,1.2494,1.2484,1.2551,1.2558,1.2612,1.2531,1.2532,1.2533,0,1.2153,1.2185,1.2251,1.2283,1.2297,1.2328,1.2364,1.2393,1.2422,1.243,1.2455,1.2457,1.2498,1.2475,1.2531,1.2505,1.2524,1.2535,1.2537,1.2541,1.2516,1.2557,1.263,1.2637,1.2545,1.2544,1.2543,0,1.2192,1.2251,1.2298,1.2314,1.2352,1.2373,1.239,1.2418,1.244,1.247,1.2484,1.2519,1.2538,1.2565,1.2576,1.2559,1.2631,1.261,1.2639,1.2638,1.2653,1.2652,1.273,1.2666,1.2666,1.2666,1.2666,0,1.2253,1.2294,1.2315,1.2344,1.2389,1.24,1.2444,1.246,1.2485,1.2516,1.2518,1.2547,1.2561,1.2593,1.2602,1.2646,1.2655,1.2662,1.2664,1.2662,1.2661,1.2674,1.267,1.2668,1.2667,1.2667,1.2667,0,1.2303,1.232,1.2371,1.2403,1.2412,1.2444,1.2471,1.2498,1.2512,1.2552,1.2562,1.2583,1.262,1.2634,1.2679,1.2685,1.2736,1.2736,1.2727,1.2727,1.2755,1.2752,1.2843,1.2855,1.2784,1.2784,1.2785,0,1.2341,1.2372,1.2408,1.243,1.2447,1.2482,1.2504,1.2517,1.254,1.2575,1.2599,1.2636,1.2666,1.2725,1.2744,1.2778,1.2778,1.2807,1.2783,1.278,1.2778,1.2776,1.2779,1.2812,1.2812,1.2813,1.2814,0,1.2407,1.2414,1.2446,1.2482,1.2509,1.2537,1.2565,1.2582,1.2599,1.2625,1.2663,1.2686,1.2733,1.2769,1.2805,1.2821,1.282,1.2821,1.2829,1.2827,1.2821,1.2824,1.2739,1.2819,1.2818,1.2818,1.2818,1.2817,1.2452,1.2479,1.2509,1.2545,1.2567,1.2593,1.2621,1.2638,1.267,1.2709,1.2714,1.2755,1.2783,1.283,1.2849,1.288,1.2872,1.2885,1.2888,1.289,1.2892,1.2816,1.2887,1.2887,1.2887,1.2886,1.2886,0,1.2517,1.2536,1.257,1.2608,1.2637,1.2634,1.2665,1.2688,1.2724,1.2751,1.2781,1.2824,1.286,1.2881,1.2917,1.2938,1.2938,1.2947,1.2945,1.2949,1.2897,1.2886,1.2946,1.2946,1.2946,1.2946,1.2946,1.2946,1.2554,1.2601,1.2611,1.2668,1.2686,1.2727,1.2744,1.2768,1.2789,1.2838,1.2868,1.2882,1.2906,1.2944,1.2976,1.2981,1.2994,1.3003,1.3008,1.2959,1.2953,1.2947,1.2937,1.3006,1.3006,1.3057,1.3057,1.3058]},{"header":{"parameterUnit":"m.s-1","parameterCategory":1,"la1":30.2991,"la2":30.254,"lo1":-89.0895,"lo2":-89.0444,"dy":0.0017,"dx":0.0017,"nx":28,"ny":28,"refTime":"2025-05-15T21:00:00:Z","depth":0,"parameterNumber":3,"parameterNumberName":"V-component_of_WINDS"},"data":[0,0,0,0,0,0,0,0,0,0,0,0,0,0,0,0,0,0,0,0,0,0,0,0,0,0,0,0,0,0,0,0,0,0,0,0,0,0,0,0,0,0,0,0,0,0,0,0,0,0,0,0,0,0,0,0,0,0,4.8838,4.8838,0,4.8885,4.8886,4.8886,4.8827,4.8825,4.8823,4.8821,4.8865,4.8868,4.8871,0,0,0,0,0,0,0,0,0,0,0,0,0,4.8692,4.8695,4.8838,4.8839,4.8839,4.8885,4.8886,4.8886,4.8828,4.8825,4.8823,4.882,4.8864,4.8868,4.8871,0,0,0,0,0,0,0,0,0,0,0,0,0,4.8749,4.8696,4.8838,4.8816,4.8814,4.8885,4.8886,4.8886,4.8828,4.8825,4.8822,4.8819,4.8863,4.8867,4.8872,4.8965,0,0,4.8886,4.8888,0,0,0,0,0,0,0,0,4.8746,4.8754,4.8818,4.8817,4.8816,4.8847,4.885,4.8913,4.8829,4.8823,4.8821,4.8817,4.8861,4.8866,4.8882,4.8967,4.8969,4.8887,4.889,4.8892,4.8893,0,0,0,0,0,0,0,4.8742,4.8752,4.8856,4.8819,4.8818,4.8802,4.8806,4.8862,4.8859,4.8823,4.8819,4.8826,4.886,4.8877,4.8882,4.897,4.8887,4.8891,4.8894,4.8896,4.9134,4.9137,0,0,0,0,0,0,4.8741,4.8749,4.8855,4.8858,4.8772,4.8807,4.8812,4.884,4.8859,4.8858,4.8828,4.8823,4.8871,4.8877,4.8884,4.8994,4.8892,4.8896,4.8899,4.913,4.9135,4.9138,0,0,0,0,0,0,4.8738,4.8751,4.8853,4.8802,4.8814,4.8813,4.8845,4.8843,4.886,4.8863,4.8861,4.8847,4.8868,4.8877,4.8946,4.8995,4.8898,4.8903,4.9126,4.9132,4.9137,4.9216,0,0,0,0,0,0,4.8734,4.8751,4.8787,4.8804,4.8817,4.8916,4.8848,4.8846,4.8869,4.8862,4.888,4.8879,4.8867,4.8939,4.895,4.9,4.8906,4.9122,4.9129,4.9135,4.9209,4.9224,4.9236,0,0,0,0,0,4.8729,4.8807,4.879,4.8803,4.8863,4.8919,4.8926,4.8912,4.8873,4.8909,4.8911,4.8879,4.8988,4.8946,4.8959,4.901,4.9119,4.9127,4.9134,4.9203,4.9221,4.9236,0,0,0,0,0,0,4.8795,4.8809,4.879,4.8875,4.8897,4.8909,4.8954,4.8931,4.8962,4.8954,4.8933,4.8937,4.9011,4.9017,4.8971,4.9101,4.9047,4.9057,4.9095,4.9111,4.9125,4.9122,4.891,0,0,0,0,0,4.882,4.8866,4.8874,4.8949,4.8961,4.8956,4.898,4.8966,4.8987,4.8995,4.9001,4.9022,4.906,4.9086,4.9121,4.921,4.9212,4.9251,4.9264,4.9275,4.9285,4.9332,4.9349,4.9164,4.9164,4.9164,0,0,4.887,4.8884,4.8914,4.8962,4.8977,4.9024,4.8964,4.9015,4.9049,4.9002,4.9068,4.9074,4.9094,4.9173,4.9208,4.9181,4.9336,4.9285,4.9294,4.9298,4.9342,4.9359,4.9375,4.917,4.9169,4.9168,0,0,4.8987,4.9002,4.9066,4.9083,4.9107,4.9103,4.9118,4.9135,4.9137,4.9203,4.9169,4.9207,4.9275,4.9291,4.9308,4.943,4.9402,4.9442,4.9512,4.9558,4.9573,4.9585,4.9629,4.9645,4.9452,4.9452,4.9452,0,4.9047,4.9118,4.9101,4.9156,4.9178,4.9139,4.9203,4.9219,4.9253,4.9268,4.9237,4.932,4.9331,4.9414,4.9444,4.9459,4.9475,4.9441,4.9572,4.9585,4.9596,4.9638,4.9654,4.9457,4.9456,4.9456,4.9455,0,4.919,4.9239,4.9287,4.9323,4.935,4.9409,4.94,4.9429,4.9413,4.9412,4.9479,4.9491,4.9529,4.9547,4.9531,4.9627,4.9609,4.9576,4.952,4.9619,4.9658,4.9673,4.9464,4.9462,4.946,4.9459,0,0,4.935,4.9376,4.9394,4.941,4.9433,4.947,4.9526,4.9564,4.959,4.9614,4.966,4.9718,4.9687,4.9706,4.9691,4.9732,4.9828,4.9693,4.9693,4.9718,4.9934,4.996,4.9979,4.9809,4.9812,4.9814,4.9932,0,4.9467,4.9567,4.9554,4.9649,4.9694,4.9657,4.9706,4.9725,4.9725,4.9761,4.9761,4.9802,4.9758,4.977,4.9808,4.9808,4.9871,4.9799,4.9851,4.9853,4.9848,4.9999,5.0026,5.0137,4.9947,4.995,4.9952,0,4.9618,4.965,4.975,4.9767,4.9785,4.9829,4.9863,4.9899,4.9918,4.9916,4.9938,4.9916,4.997,4.9914,4.9988,4.994,4.996,4.9963,4.9967,4.9972,4.9909,5.0008,5.0172,5.0189,4.9975,4.9973,4.9972,0,4.9725,4.9793,4.9861,4.9876,4.9897,4.9929,4.9938,4.9955,4.9979,5.0007,5.0022,5.0056,5.0075,5.0101,5.0089,5.0049,5.0165,5.0108,5.0164,5.0165,5.0191,5.019,5.0361,5.0203,5.0203,5.0202,5.0202,0,4.9858,4.9921,4.991,4.9952,5.0021,5.0004,5.0072,5.0077,5.0092,5.0133,5.0103,5.0142,5.0122,5.016,5.015,5.0213,5.0221,5.022,5.0217,5.0223,5.0224,5.0236,5.0229,5.0207,5.0206,5.0205,5.0204,0,4.999,4.9985,5.0058,5.0072,5.0077,5.0127,5.0138,5.0177,5.0174,5.0227,5.0238,5.0235,5.0277,5.0267,5.0312,5.0306,5.0385,5.0372,5.038,5.0377,5.0434,5.0429,5.062,5.0644,5.047,5.0472,5.0473,0,5.0076,5.0123,5.0143,5.0169,5.0182,5.0225,5.0249,5.0234,5.026,5.0286,5.0322,5.0361,5.0393,5.0462,5.0462,5.0496,5.0484,5.0549,5.0489,5.0494,5.0485,5.0483,5.0488,5.0561,5.0563,5.0564,5.0566,0,5.0228,5.0223,5.0261,5.0298,5.0328,5.0355,5.038,5.0402,5.0389,5.0419,5.0463,5.0488,5.0535,5.0574,5.0606,5.0614,5.0588,5.0584,5.0599,5.0607,5.0609,5.0609,5.0413,5.058,5.0579,5.0578,5.0577,5.0576,5.034,5.038,5.0401,5.0443,5.046,5.0484,5.0521,5.0524,5.0561,5.0599,5.0587,5.0637,5.0654,5.0695,5.0707,5.0744,5.072,5.0741,5.0747,5.0753,5.076,5.0603,5.075,5.0749,5.0749,5.0749,5.0748,0,5.0491,5.0502,5.0542,5.0578,5.0611,5.0584,5.0609,5.0638,5.0683,5.0703,5.0734,5.0784,5.0822,5.0826,5.0861,5.0891,5.0879,5.0901,5.0899,5.0901,5.078,5.0764,5.0909,5.0909,5.0909,5.0909,5.0909,5.0909,5.0574,5.0641,5.0639,5.0714,5.0724,5.0775,5.0791,5.0812,5.0828,5.0886,5.0918,5.092,5.0933,5.0969,5.1002,5.1002,5.1017,5.1043,5.1038,5.0925,5.0909,5.0894,5.0879,5.1046,5.1046,5.1156,5.1157,5.1158]}]]